Regional Weather Roundup
Issued by NWS

Home | Current Version | Previous Version | Graphics & Text | Print | Product List | Glossary On
Versions: 1 2 3 4 5 6 7 8 9 10 11 12 13 14 15 16 17 18 19 20 21 22 23 24 25 26 27 28 29 30 31 32 33 34 35 36 37 38 39 40 41 42 43 44 45 46 47 48 49 50
000
ASUS43 KTOP 050759
RWRKS

WEATHER ROUNDUP FOR KANSAS
NATIONAL WEATHER SERVICE GOODLAND KS
300 AM CDT SUN JUL 05 2015

NOTE:  "FAIR" INDICATES FEW OR NO CLOUDS BELOW 12,000 FEET WITH NO
SIGNIFICANT WEATHER AND/OR OBSTRUCTIONS TO VISIBILITY.

KSZ001>006-013>018-027>032-041>047-050900-
NORTHWEST KANSAS

CITY           SKY/WX    TMP DP  RH WIND       PRES   REMARKS
GOODLAND       CLOUDY    72  62  71 S17       29.89F
HAYS           PTCLDY    75  63  64 S13       29.90F
HILL CITY      MOCLDY    78  66  66 S10       29.89S
RUSSELL        CLEAR     74  66  76 S16       29.90F
$$

KSZ061>065-074>080-084>089-050900-
SOUTHWEST KANSAS

CITY           SKY/WX    TMP DP  RH WIND       PRES   REMARKS
DODGE CITY     CLOUDY    72  64  76 SE15      29.94F
ELKHART          N/A     75  56  51 S12         N/A
GARDEN CITY    CLOUDY    74  66  76 E18       29.95S
GREAT BEND     PTCLDY    73  64  73 S14       29.93F
LIBERAL        MOCLDY    73  61  64 S9        29.95S
$$

KSZ066>073-081>083-090>101-050900-
SOUTHEAST KANSAS

CITY           SKY/WX    TMP DP  RH WIND       PRES   REMARKS
CHANUTE        CLEAR     70  67  90 SE7       29.98F FOG
COFFEYVILLE    CLEAR     71  68  90 CALM      29.96F
HUTCHINSON     PTCLDY    75  66  73 SE8       29.94F
MEDICINE LODGE   N/A     75  68  78 SE8       29.94F
NEWTON         PTCLDY    72  63  73 SE9       29.98F
PARSONS        CLEAR     72  69  90 CALM      29.98F
WICHITA INTL   PTCLDY    76  67  73 SE10      29.95F
WICHITA JABRA  PTCLDY    74  66  76 SE8       29.96S
WINFIELD       MOCLDY    76  70  82 SE7       29.97S
$$

KSZ007>012-019>026-033>040-048>060-102>105-050900-
NORTHEAST KANSAS

CITY           SKY/WX    TMP DP  RH WIND       PRES   REMARKS
CONCORDIA      CLOUDY    73  64  73 SE10      29.93S
EMPORIA        CLEAR     71  66  84 SE9       29.97F
LAWRENCE       CLEAR     66  63  90 E5        29.98F FOG
MANHATTAN      MOCLDY    73  67  81 S6        29.94F
OLATHE IND     CLEAR     69  65  86 SE7       30.00F
OLATHE EXE     CLEAR     67  64  90 SE5       29.99F
SALINA         MOCLDY    77  65  66 S12       29.93F
TOPEKA BILLARD CLEAR     70  65  84 E5        29.97F
TOPEKA FORBES  CLEAR     69  64  84 SE7       29.97F
$$


USA.gov is the U.S. government's official web portal to all federal, state and local government web resources and services.